Location: Recife
(8.0585°S, 34.8848°W)
Time: 20:26:21
(UTC-03:00)

Explorer 11/Cluster Stage 4 - Pass Details

Date: 15 April 2026
Orbit: 463 x 1174 km, 28.8° (Epoch: 16 May)

Event Time Altitude Azimuth Distance (km) Brightness Sun altitude
Rises 19:39:46 0° 299° (WNW) 3,411 10.7 -35.8°
Reaches altitude 10° 19:42:33 10° 298° (WNW) 2,351 9.7 -36.5°
Enters shadow 19:44:49 24° 297° (WNW) 1,510 8.5 -37.0°
Maximum altitude 19:48:04 84° 210° (SSW) 680 - -37.8°
Drops below altitude 10° 19:52:30 10° 121° (ESE) 1,913 - -38.9°
Sets 19:54:36 0° 120° (ESE) 2,729 - -39.4°
